Weaverville, CA

10:35 AM PST on February 10, 2016 (GMT -0800)
Weaverville

Weather History for KO54 - May, 2014

Change the Weather History Date:

Thursday, May 15, 2014

  Actual Average (KRDD) Record (KRDD)
Temperature  
Mean Temperature 68 °F -  
Max Temperature 87 °F 81 °F 103 °F (2008)
Min Temperature 48 °F 54 °F 43 °F (2011)
Degree Days  
Heating Degree Days 0    
Cooling Degree Days 2    
Growing Degree Days 18 (Base 50)    
Moisture  
Dew Point 37 °F    
Average Humidity 43    
Maximum Humidity 76    
Minimum Humidity 8    
Precipitation  
Precipitation 0.00 in 0.06 in 1.03 in (2011)
Month to date precipitation 0.90  
Year to date precipitation 19.22  
Sea Level Pressure  
Sea Level Pressure 30.13 in    
Wind  
Wind Speed 2 mph (WSW)    
Max Wind Speed 12 mph    
Max Gust Speed 20 mph    
Visibility 10 miles    
Events      
T = Trace of Precipitation, MM = Missing Value Source: NWS Daily Summary

Daily Weather History Graph

Daily Weather History Graph

Search for Another Location

Airport or City:

Trip Planner

Search our weather history database for the weather conditions in past years. The results will help you decide how hot, cold, wet, or windy it might be!

Date:

Astronomy

May. 15, 2014 Rise Set
Actual Time 5:54 AM PDT 8:22 PM PDT
Civil Twilight 5:23 AM PDT 8:53 PM PDT
Nautical Twilight 4:44 AM PDT 9:32 PM PDT
Astronomical Twilight 4:01 AM PDT 10:15 PM PDT
Moon 9:35 PM PDT (5/15) 6:46 AM PDT (5/15)
Length of Visible Light 15h 30m
Length of Day
14h 27m
Full, 99% of the Moon is Illuminated
May 15
Full
May 21
Last Quarter
May 28
New
Jun 5
First Quarter
Jun 12
Full

Hourly Weather History & Observations

Time (PDT) Temp. Dew Point Humidity Pressure Visibility Wind Dir Wind Speed Gust Speed Precip Events Conditions
12:15 AM 57.2 °F 41.0 °F 55% 30.16 in 10.0 mi Calm Calm - N/A   Clear
12:35 AM 57.2 °F 41.0 °F 55% 30.16 in 10.0 mi Calm Calm - N/A   Clear
12:55 AM 57.2 °F 41.0 °F 55% 30.17 in 10.0 mi NNE 3.5 mph - N/A   Clear
1:15 AM 55.4 °F 41.0 °F 58% 30.17 in 10.0 mi Calm Calm - N/A   Clear
1:35 AM 55.4 °F 41.0 °F 58% 30.17 in 10.0 mi North 3.5 mph - N/A   Clear
1:55 AM 53.6 °F 41.0 °F 62% 30.17 in 10.0 mi Calm Calm - N/A   Clear
2:15 AM 51.8 °F 41.0 °F 67% 30.17 in 10.0 mi Calm Calm - N/A   Partly Cloudy
2:35 AM 51.8 °F 41.0 °F 67% 30.17 in 10.0 mi NNE 3.5 mph - N/A   Partly Cloudy
2:55 AM 51.8 °F 41.0 °F 67% 30.17 in 10.0 mi Calm Calm - N/A   Partly Cloudy
3:15 AM 50.0 °F 41.0 °F 71% 30.16 in 10.0 mi NNE 3.5 mph - N/A   Mostly Cloudy
3:35 AM 50.0 °F 41.0 °F 71% 30.16 in 10.0 mi Calm Calm - N/A   Mostly Cloudy
3:55 AM 50.0 °F 41.0 °F 71% 30.16 in 10.0 mi Calm Calm - N/A   Scattered Clouds
4:15 AM 48.2 °F 41.0 °F 76% 30.16 in 10.0 mi NNE 3.5 mph - N/A   Partly Cloudy
4:35 AM 48.2 °F 41.0 °F 76% 30.16 in 10.0 mi Calm Calm - N/A   Scattered Clouds
4:55 AM 48.2 °F 41.0 °F 76% 30.16 in 10.0 mi Calm Calm - N/A   Scattered Clouds
5:15 AM 48.2 °F 41.0 °F 76% 30.17 in 10.0 mi NNE 3.5 mph - N/A   Partly Cloudy
5:35 AM 48.2 °F 41.0 °F 76% 30.16 in 10.0 mi Calm Calm - N/A   Partly Cloudy
5:55 AM 48.2 °F 41.0 °F 76% 30.17 in 10.0 mi Calm Calm - N/A   Clear
6:15 AM 48.2 °F 41.0 °F 76% 30.17 in 10.0 mi Calm Calm - N/A   Clear
6:35 AM 48.2 °F 41.0 °F 76% 30.18 in 10.0 mi Calm Calm - N/A   Clear
6:55 AM 50.0 °F 42.8 °F 76% 30.18 in 10.0 mi Calm Calm - N/A   Clear
7:15 AM 51.8 °F 44.6 °F 76% 30.18 in 10.0 mi Calm Calm - N/A   Clear
7:35 AM 53.6 °F 42.8 °F 67% 30.17 in 10.0 mi Calm Calm - N/A   Clear
7:55 AM 55.4 °F 44.6 °F 67% 30.18 in 10.0 mi Calm Calm - N/A   Clear
8:15 AM 57.2 °F 44.6 °F 63% 30.18 in 10.0 mi Calm Calm - N/A   Clear
8:35 AM 59.0 °F 44.6 °F 59% 30.18 in 10.0 mi Calm Calm - N/A   Clear
8:55 AM 59.0 °F 44.6 °F 59% 30.18 in 10.0 mi Calm Calm - N/A   Clear
9:15 AM 62.6 °F 42.8 °F 48% 30.18 in 10.0 mi Calm Calm - N/A   Clear
9:35 AM 64.4 °F 42.8 °F 45% 30.17 in 10.0 mi Calm Calm - N/A   Clear
9:55 AM 66.2 °F 44.6 °F 46% 30.17 in 10.0 mi Calm Calm - N/A   Clear
10:15 AM 68.0 °F 44.6 °F 43% 30.16 in 10.0 mi SSW 3.5 mph - N/A   Clear
10:35 AM 71.6 °F 44.6 °F 38% 30.16 in 10.0 mi Calm Calm - N/A   Clear
10:55 AM 71.6 °F 46.4 °F 41% 30.16 in 10.0 mi Calm Calm - N/A   Clear
11:15 AM 73.4 °F 46.4 °F 38% 30.15 in 10.0 mi Calm Calm - N/A   Clear
12:15 PM 78.8 °F 46.4 °F 32% 30.14 in 10.0 mi Calm Calm - N/A   Clear
12:55 PM 82.4 °F 44.6 °F 26% 30.13 in 7.0 mi SSW 4.6 mph - N/A   Clear
1:15 PM 82.4 °F 41.0 °F 23% 30.12 in 9.0 mi Calm Calm - N/A   Clear
1:35 PM 82.4 °F 41.0 °F 23% 30.12 in 10.0 mi SSW 3.5 mph - N/A   Clear
1:55 PM 84.2 °F 41.0 °F 22% 30.11 in 10.0 mi South 3.5 mph - N/A   Clear
2:15 PM 84.2 °F 37.4 °F 19% 30.11 in 10.0 mi WNW 4.6 mph - N/A   Clear
2:35 PM 84.2 °F 35.6 °F 18% 30.10 in 10.0 mi NW 8.1 mph - N/A   Clear
2:55 PM 86.0 °F 33.8 °F 15% 30.09 in 10.0 mi WSW 3.5 mph - N/A   Clear
3:15 PM 86.0 °F 32.0 °F 14% 30.09 in 10.0 mi West 6.9 mph - N/A   Clear
3:35 PM 87.8 °F 21.2 °F 9% 30.08 in 10.0 mi SSW 9.2 mph 16.1 mph N/A   Clear
3:55 PM 87.8 °F 23.0 °F 9% 30.08 in 10.0 mi South 9.2 mph 16.1 mph N/A   Clear
4:15 PM 86.0 °F 19.4 °F 9% 30.07 in 10.0 mi SSW 11.5 mph 19.6 mph N/A   Clear
4:35 PM 86.0 °F 17.6 °F 8% 30.07 in 10.0 mi SSW 11.5 mph 17.3 mph N/A   Clear
4:55 PM 86.0 °F 19.4 °F 9% 30.07 in 10.0 mi SSW 6.9 mph - N/A   Clear
5:15 PM 86.0 °F 19.4 °F 9% 30.07 in 10.0 mi SSW 5.8 mph - N/A   Clear
5:35 PM 84.2 °F 21.2 °F 10% 30.07 in 10.0 mi SW 11.5 mph - N/A   Clear
5:55 PM 84.2 °F 24.8 °F 11% 30.07 in 10.0 mi SW 9.2 mph - N/A   Clear
6:15 PM 84.2 °F 26.6 °F 12% 30.07 in 10.0 mi SW 8.1 mph - N/A   Clear
6:35 PM 84.2 °F 30.2 °F 14% 30.07 in 10.0 mi SW 8.1 mph - N/A   Clear
6:55 PM 82.4 °F 28.4 °F 14% 30.07 in 10.0 mi SW 5.8 mph - N/A   Clear
7:15 PM 80.6 °F 26.6 °F 14% 30.08 in 10.0 mi SW 6.9 mph - N/A   Clear
7:35 PM 80.6 °F 26.6 °F 14% 30.09 in 10.0 mi SW 4.6 mph - N/A   Clear
7:55 PM 77.0 °F 28.4 °F 17% 30.09 in 10.0 mi SSW 8.1 mph - N/A   Clear
8:15 PM 75.2 °F 28.4 °F 18% 30.09 in 10.0 mi SSW 8.1 mph - N/A   Clear
8:35 PM 73.4 °F 35.6 °F 25% 30.09 in 10.0 mi Calm Calm - N/A   Clear
8:55 PM 66.2 °F 39.2 °F 37% 30.10 in 10.0 mi North 3.5 mph - N/A   Clear
9:15 PM 64.4 °F 37.4 °F 37% 30.11 in 10.0 mi Calm Calm - N/A   Clear
9:35 PM 62.6 °F 39.2 °F 42% 30.11 in 10.0 mi Calm Calm - N/A   Partly Cloudy
9:55 PM 62.6 °F 39.2 °F 42% 30.12 in 10.0 mi NNE 4.6 mph - N/A   Partly Cloudy
10:15 PM 59.0 °F 37.4 °F 45% 30.12 in 10.0 mi North 3.5 mph - N/A   Scattered Clouds
10:35 PM 59.0 °F 39.2 °F 48% 30.12 in 10.0 mi NNE 3.5 mph - N/A   Scattered Clouds
10:55 PM 57.2 °F 37.4 °F 48% 30.12 in 10.0 mi Calm Calm - N/A   Mostly Cloudy
11:15 PM 57.2 °F 37.4 °F 48% 30.12 in 10.0 mi NNE 4.6 mph - N/A   Mostly Cloudy
11:35 PM 55.4 °F 37.4 °F 51% 30.12 in 10.0 mi NNE 4.6 mph - N/A   Overcast
11:55 PM 55.4 °F 37.4 °F 51% 30.13 in 10.0 mi ENE 3.5 mph - N/A   Overcast